Roberto Rodrigues

Olheiro - Internacional
19 Ago 2027
Quinta-feira
Processo

Personalidade

Adaptabilidade (12) Ambição (15) Controvérsia (2) Lealdade (4) Pressão (12) Profissionalismo (17) Espírito Esportivo (2) Temperamento (17)

Perfil

Estilo de Treinamento Democrático
Licença Continental B
Determinação 14
Gestão de Pessoas 14
Motivação 6
Disciplina 11
Satisfação no Trabalho
100%
Fadiga
0%
Função Olheiro
Salário 27.2K p/s
Contrato 14.03.2029

Desempenho

Comportamento Bom
Eficácia do Treinamento
43%
Desenvolvimento do Jogador
65%
Prevenção de Lesões
65%
Implementação Tática
45%

Eventos Recentes

Participou de uma reunião de recrutamento agora
Participou de uma reunião de recrutamento 7d atrás
Participou de uma reunião de recrutamento 7d atrás
Participou de uma reunião de recrutamento 7d atrás
Votou contra um alvo de transferência 7d atrás
Participou de uma reunião de recrutamento 14d atrás
Participou de uma reunião de recrutamento 14d atrás
Participou de uma reunião de recrutamento 14d atrás

Monitorando agora

196
Jogador Clube Status Habilidade Confiança Observado Última observação Último voto
Finn Azaz Southampton Ativo 133 / 138 40% 2 31.05.2027 -
Kwadwo Baah Watford Ativo 137 / 120 40% 1 31.05.2027 -
Lautaro Martínez Inter Ativo 169 / 180 40% 3 30.05.2027 -
Mohamed-Ali Cho Hull City Ativo 140 / 146 40% 1 28.05.2027 -
Amadou Onana Aston Villa Ativo 157 / 157 40% 2 27.05.2027 -
Adam Wharton Crystal Palace Ativo 156 / 153 40% 3 27.05.2027 -
Derry Murkin Derby County Ativo 132 / 114 40% 2 26.05.2027 -
Curtis Jones Inter Ativo 146 / 157 40% 2 24.05.2027 -
Gonzalo Fulham Ativo 150 / 159 40% 2 24.05.2027 -
Max Bird Birmingham Ativo 140 / 135 40% 3 22.05.2027 -
Christian Pulisic AC Milan Ativo 163 / 151 40% 3 22.05.2027 Observar
Nicolas Madsen Queens Park Rangers Ativo 133 / 119 40% 1 22.05.2027 -
Che Adams Torino Ativo 150 / 149 40% 1 17.05.2027 -
Giacomo Raspadori Atalanta Ativo 143 / 145 40% 5 16.05.2027 -
Dango Ouattara Brentford Ativo 149 / 137 40% 1 16.05.2027 -
Mateo Pellegrino Fiorentina Ativo 137 / 128 40% 3 15.05.2027 -
Georginio Rutter Brighton Ativo 147 / 160 40% 1 14.05.2027 -
Ryan Sessegnon Fulham Ativo 157 / 150 40% 2 13.05.2027 -
Juanlu Bournemouth Ativo 154 / 142 40% 1 13.05.2027 Mais informações
Hector Ramirez Newcastle United Ativo 162 / 143 40% 3 12.05.2027 -
Jarrad Branthwaite Everton Ativo 168 / 154 40% 1 12.05.2027 -
Nikola Vlašić Torino Ativo 147 / 142 40% 4 10.05.2027 -
Mats Wieffer Brighton Ativo 141 / 160 40% 2 09.05.2027 -
Ethan Galbraith Swansea City Ativo 140 / 127 40% 4 07.05.2027 -
Nicolas Jackson Aston Villa Rejeitado 160 / 142 40% 3 05.05.2027 Rejeitar
Francisco Conceição Juventus Ativo 156 / 167 40% 2 05.05.2027 -
James Garner Everton Ativo 145 / 157 40% 2 05.05.2027 -
Óscar Mingueza Crystal Palace Ativo 154 / 158 40% 1 05.05.2027 -
Barış Alper Yılmaz Galatasaray Ativo 142 / 137 40% 5 03.05.2027 -
Ismaïla Sarr Crystal Palace Ativo 140 / 144 40% 1 03.05.2027 -
Soungoutou Magassa West Ham United Ativo 141 / 138 40% 1 27.04.2027 -
Ousmane Diomande Nottingham Forest Ativo 165 / 153 40% 2 26.04.2027 -
Micky van de Ven Tottenham Ativo 156 / 152 40% 1 26.04.2027 -
Gonçalo Inácio Sporting CP Ativo 162 / 153 40% 3 23.04.2027 -
Mateo Retegui Tottenham Ativo 163 / 162 40% 1 23.04.2027 -
Gianluca Prestianni Benfica Ativo 151 / 136 40% 2 21.04.2027 -
Aaron Hickey Brentford Ativo 141 / 135 40% 1 21.04.2027 -
Manu Koné AS Roma Ativo 175 / 166 40% 1 21.04.2027 -
Dodi Lukébakio Benfica Ativo 144 / 142 40% 2 15.04.2027 -
Zeno Debast Sporting CP Ativo 133 / 147 40% 2 14.04.2027 -
Francisco Moura Lusitânia Lourosa Ativo 129 / 126 40% 2 14.04.2027 -
Oli McBurnie Hull City Ativo 123 / 146 40% 3 13.04.2027 -
Dominic Calvert-Lewin Leeds United Ativo 150 / 147 40% 1 13.04.2027 -
Morgan Whittaker Middlesbrough Ativo 129 / 130 40% 1 12.04.2027 -
Welington Southampton Ativo 130 / 118 40% 4 11.04.2027 -
Nuno Tavares Lazio Ativo 159 / 150 40% 2 11.04.2027 -
Noah Okafor Leeds United Ativo 136 / 132 40% 1 10.04.2027 -
Alan Varela Porto Ativo 147 / 144 40% 3 08.04.2027 -
Iván Fresneda Sporting CP Ativo 134 / 133 40% 7 07.04.2027 -
João Simões Sporting CP Ativo 124 / 141 40% 4 07.04.2027 -
Ozziel Herrera Tigres Ativo 137 / 120 40% 1 03.04.2027 -
Yoane Wissa Newcastle United Ativo 128 / 136 40% 4 02.04.2027 -
Ayase Ueda LOSC Lille Ativo 155 / 129 40% 2 02.04.2027 -
Gustaf Lagerbielke Braga Ativo 151 / 137 40% 11 01.04.2027 -
Kevin Vazquez Cruz Azul Ativo 133 / 147 40% 1 01.04.2027 -
Tyrell Malacia Monaco Ativo 138 / 140 40% 2 31.03.2027 -
Nicolás Fernández Mercau Shakhtar Ativo 139 / 137 40% 2 31.03.2027 -
Tiago Santos LOSC Lille Ativo 151 / 153 40% 1 27.03.2027 -
Folarin Balogun Monaco Ativo 135 / 129 40% 4 26.03.2027 -
Dávid Strelec Middlesbrough Ativo 146 / 130 40% 2 25.03.2027 -
Jens Odgaard Bologna Ativo 148 / 129 40% 1 24.03.2027 -
Steven Bergwijn Al-Ittihad Ativo 158 / 144 40% 2 23.03.2027 -
Julián Quiñones Lokomotiv Moscow Ativo 153 / 133 40% 9 22.03.2027 -
Shea Charles Southampton Ativo 137 / 133 40% 2 21.03.2027 -
Aidan Morris Middlesbrough Ativo 145 / 122 40% 3 21.03.2027 -
Rashid Rashid Sparta Prague Ativo 121 / 143 40% 1 18.03.2027 -
Toni Fruk KV Mechelen Ativo 152 / 140 40% 1 18.03.2027 -
Paulinho Palmeiras Ativo 140 / 133 40% 7 15.03.2027 -
Jørgen Strand Larsen Crystal Palace Ativo 137 / 138 40% 2 15.03.2027 -
Jonathan Burkardt Eintracht Frankfurt Ativo 149 / 154 40% 2 14.03.2027 -
Félix Lemaréchal Club Brugge Ativo 126 / 148 40% 2 13.03.2027 -
Milan van Ewijk Mansfield Town Ativo 117 / 130 40% 1 11.03.2027 -
Amine Gouiri Olympique de Marseille Ativo 139 / 151 40% 1 11.03.2027 -
Pedro Flamengo Ativo 132 / 134 40% 1 07.03.2027 -
Alberto Costa Porto Ativo 131 / 145 40% 2 06.03.2027 -
Christian Krasnodar Ativo 135 / 120 40% 3 03.03.2027 -
Razvan Balasa Crvena Zvezda Ativo 140 / 136 40% 2 02.03.2027 -
Dwight McNeil Crystal Palace Ativo 136 / 147 40% 1 01.03.2027 -
Eddie Nketiah Crystal Palace Ativo 143 / 135 40% 1 01.03.2027 -
Ivan Toney Al-Ahli Ativo 157 / 138 40% 1 27.02.2027 -
Samu Aghehowa AS Roma Ativo 166 / 153 40% 2 25.02.2027 -
Giovanni Simeone Torino Ativo 122 / 149 40% 2 25.02.2027 -
Callum Doyle Wrexham Ativo 117 / 132 40% 4 24.02.2027 -
Imrân Louza Watford Ativo 118 / 128 40% 2 24.02.2027 -
Luka Jović AEK Ativo 145 / 138 40% 2 23.02.2027 -
Musa Barrow Al-Khaleej Ativo 154 / 147 40% 2 23.02.2027 -
Florentino Luís Ipswich Town Ativo 140 / 137 40% 2 21.02.2027 -
Roberto Fernández Braga Ativo 146 / 138 40% 2 20.02.2027 -
Gabri Martínez Braga Ativo 116 / 141 40% 4 19.02.2027 -
Matheus Bidu Corinthians Ativo 141 / 123 40% 2 13.02.2027 -
Hany Mukhtar Spezia Ativo 124 / 130 40% 3 12.02.2027 -
Nicolò Zaniolo Udinese Ativo 158 / 142 40% 4 11.02.2027 -
Lukáš Červ Viktoria Plzen Ativo 146 / 119 40% 1 11.02.2027 -
Fotis Ioannidis Rio Ave Ativo 125 / 135 40% 2 08.02.2027 -
Kristoffer Lund Birmingham Ativo 134 / 121 40% 3 08.02.2027 -
Luke McNally Bristol City Ativo 125 / 121 40% 1 07.02.2027 -
Álex Centelles Levski Ativo 141 / 130 40% 1 07.02.2027 -
Adnan Courtois KV Oostende Ativo 128 / 122 40% 2 05.02.2027 -
Brian Rodríguez Club America Ativo 141 / 136 40% 1 03.02.2027 -
William Gomes Porto Ativo 135 / 146 40% 5 31.01.2027 -
Caio Alexandre Bahia Ativo 127 / 140 40% 4 30.01.2027 -
Eric Ramires Bragantino Ativo 125 / 125 40% 1 28.01.2027 -
Victor Froholdt Porto Ativo 158 / 148 40% 7 23.01.2027 -
Ilay Camara Anderlecht Ativo 131 / 122 40% 1 20.01.2027 -
Rodrigo Zalazar Sporting CP Ativo 135 / 157 40% 4 18.01.2027 -
Henry Mosquera Bragantino Ativo 133 / 130 40% 3 18.01.2027 Observar
Rodrigo Pinheiro Famalicao Ativo 115 / 133 40% 4 16.01.2027 -
Ansu Fati Monaco Ativo 141 / 132 40% 1 16.01.2027 -
Cauan Barros Vasco da Gama Ativo 123 / 130 40% 1 16.01.2027 -
Pau Víctor AVS Ativo 155 / 149 40% 5 13.01.2027 Observar
Jack Rudoni Coventry City Ativo 118 / 136 40% 1 11.01.2027 -
Diego Rossi Monterrey Ativo 141 / 130 40% 1 11.01.2027 -
Jesús Orozco Chiquete Cruz Azul Ativo 141 / 137 40% 1 06.01.2027 -
José Hurtado Bragantino Ativo 117 / 118 40% 1 04.01.2027 -
Sikou Niakaté Braga Ativo 121 / 134 40% 2 03.01.2027 -
Lucas Piton Vasco da Gama Ativo 122 / 124 40% 1 03.01.2027 -
Vitinho Botafogo Ativo 143 / 129 40% 1 01.01.2027 -
Matheuzinho Corinthians Ativo 120 / 134 40% 1 01.01.2027 -
Bright Arrey-Mbi Braga Ativo 114 / 140 40% 1 29.12.2026 -
Emerson Royal Flamengo Ativo 126 / 124 40% 1 28.12.2026 -
Heorhii Sudakov Benfica Ativo 162 / 136 40% 8 17.12.2026 -
Samuel Lino Flamengo Ativo 155 / 133 40% 3 16.12.2026 -
Mario Dorgeles Braga Ativo 124 / 126 40% 5 12.12.2026 -
Nuno Moreira Vasco da Gama Ativo 141 / 132 40% 1 08.12.2026 -
Santi García Gil Vicente Ativo 140 / 134 40% 1 02.12.2026 -
Orbelín Pineda Monterrey Ativo 136 / 143 40% 3 27.11.2026 -
Igor Burnley Ativo 134 / 141 40% 1 25.11.2026 -
Agustín Palavecino Cruz Azul Ativo 132 / 139 40% 1 24.11.2026 -
Marcos Antonio Sport Recife Ativo 134 / 135 40% 2 23.11.2026 -
Rémi Lemoine Chamois Niortais Ativo 174 / 152 40% 3 23.11.2026 -
Matheus Pereira Cruzeiro Ativo 135 / 150 40% 3 22.11.2026 -
Vinicinho Bragantino Ativo 136 / 124 40% 1 20.11.2026 -
Lucas Paquetá Flamengo Ativo 146 / 135 40% 1 19.11.2026 -
Lewis Cook Bournemouth Ativo 162 / 137 40% 1 19.11.2026 -
João Palhinha Benfica Ativo 160 / 138 40% 2 18.11.2026 -
Léo Ortiz Flamengo Ativo 134 / 141 40% 2 18.11.2026 -
Zé Leite Leixões Ativo 108 / 125 40% 1 18.11.2026 -
Andreas Pereira Palmeiras Ativo 143 / 138 40% 2 15.11.2026 -
Leon Goretzka Aston Villa Ativo 139 / 141 40% 3 13.11.2026 Observar
Othmane Maamma Watford Ativo 138 / 125 40% 1 10.11.2026 -
Luís Guilherme Sporting CP Ativo 128 / 119 40% 2 09.11.2026 -
Pedro Porro Tottenham Ativo 130 / 133 40% 2 08.11.2026 -
Duvan Rangel La Equidad Ativo 126 / 127 40% 1 07.11.2026 -
Henrique Araújo Casa Pia Ativo 122 / 123 40% 1 06.11.2026 -
Marco Asensio Fenerbahce Ativo 149 / 158 40% 2 04.11.2026 -
Joaquín Piquerez Palmeiras Ativo 127 / 129 40% 2 03.11.2026 -
Gérson Cruzeiro Ativo 153 / 145 40% 2 03.11.2026 -
Brais Méndez Columbus Crew Ativo 149 / 148 40% 1 03.11.2026 -
Luis Quintero Torreense Ativo 127 / 135 40% 1 01.11.2026 -
Guilherme Arana Fluminense Ativo 128 / 140 40% 1 01.11.2026 -
Pablo Rosario Porto Ativo 131 / 126 40% 3 27.10.2026 -
Jean Lucas Bahia Ativo 131 / 130 40% 1 27.10.2026 -
Nicolás de la Cruz Flamengo Ativo 135 / 133 40% 1 25.10.2026 -
Lee Hyun-Ju Arouca Ativo 131 / 114 40% 1 23.10.2026 -
Manu Pozo Torreense Ativo 104 / 129 40% 1 22.10.2026 -
Nathan Collins Brentford Ativo 136 / 135 40% 1 19.10.2026 -
Leandro Barreiro Benfica Ativo 132 / 146 40% 1 16.10.2026 -
Jan Bednarek Porto Ativo 127 / 142 40% 1 15.10.2026 -
Dawda Camara Alverca Ativo 131 / 110 40% 1 15.10.2026 -
Leroy Sané Galatasaray Ativo 150 / 162 40% 1 13.10.2026 -
Mauro Arambarri River Plate Ativo 142 / 156 40% 6 10.10.2026 -
Matty Cash Aston Villa Ativo 148 / 158 40% 2 10.10.2026 -
Taichi Fukui Arouca Ativo 142 / 131 40% 3 06.10.2026 -
Leonardo Borja La Equidad Ativo 158 / 153 40% 1 30.09.2026 -
Renan Lodi Atlético Mineiro Ativo 144 / 139 40% 2 26.09.2026 -
Danilo Botafogo Ativo 124 / 135 40% 1 26.09.2026 -
Ianis Stoica Estrela da Amadora Ativo 96 / 107 40% 1 26.09.2026 -
Adrien Truffert Bournemouth Ativo 142 / 157 40% 1 21.09.2026 Mais informações
Geny Sporting CP Ativo 125 / 140 40% 2 17.09.2026 -
Jalen Blesa Rio Ave Ativo 133 / 108 40% 1 15.09.2026 -
Víctor Gómez Braga Ativo 124 / 132 40% 1 13.09.2026 -
Luis Sinisterra Cruzeiro Ativo 132 / 142 40% 1 11.09.2026 -
Marlon Freitas Palmeiras Ativo 129 / 131 40% 1 09.09.2026 -
Arthur Santos Ativo 150 / 144 40% 1 09.09.2026 -
Joachim Andersen Fulham Ativo 127 / 134 40% 1 08.09.2026 -
Saša Lukić Ipswich Town Ativo 143 / 149 40% 1 08.09.2026 -
Sergi Altimira Sporting CP Ativo 136 / 132 40% 1 07.09.2026 -
Ángel Correa River Plate Ativo 131 / 138 40% 1 04.09.2026 -
Pepê Porto Ativo 159 / 145 40% 2 31.08.2026 -
Ricardo Horta Braga Ativo 146 / 138 40% 2 31.08.2026 -
Eduardo Quaresma Sporting CP Ativo 157 / 134 40% 2 28.08.2026 -
Dan Ndoye Nottingham Forest Ativo 147 / 138 40% 1 28.08.2026 -
Demir Ege Tıknaz Braga Ativo 104 / 130 40% 1 26.08.2026 -
Martín Tejón Maritimo Ativo 103 / 111 40% 1 25.08.2026 -
Gabriel Veron Porto Ativo 125 / 134 40% 1 24.08.2026 -
Lorougnon Gohi Académico de Viseu Ativo 125 / 107 40% 1 23.08.2026 -
Mikel Merino Arsenal Ativo 145 / 161 40% 1 16.08.2026 -
Diego Rodrigues Braga Ativo 101 / 118 40% 1 15.08.2026 -
Cristhian Mosquera Arsenal Ativo 153 / 141 40% 1 13.08.2026 -
Álex Berenguer Athletic Bilbao Ativo 152 / 153 40% 1 08.08.2026 -
Giovani Lo Celso Olympique de Marseille Ativo 147 / 147 40% 1 08.08.2026 -
Pape Guèye Villarreal Ativo 167 / 135 40% 1 07.08.2026 -
Robin Le Normand Atlético Madrid Ativo 151 / 155 40% 1 07.08.2026 -
Mateja Stjepanović Moreirense Ativo 100 / 128 40% 1 06.08.2026 -
Gonçalo Nogueira Vitoria Guimaraes Ativo 111 / 124 40% 1 04.08.2026 -
Marcos Llorente Atlético Madrid Ativo 159 / 157 40% 1 02.08.2026 -